Weather History for McGuire AFB, NJ

Change the Weather History Date:

Thursday, January 2, 2014

  Actual Average Record
Temperature  
Mean Temperature 28 °F -  
Max Temperature 35 °F 41 °F 66 °F (2000)
Min Temperature 21 °F 25 °F 6 °F (1999)
Degree Days  
Heating Degree Days 37    
Moisture  
Dew Point 25 °F    
Average Humidity 89    
Maximum Humidity 93    
Minimum Humidity 80    
Precipitation  
Precipitation 0.07 in - - ()
Sea Level Pressure  
Sea Level Pressure 29.80 in    
Wind  
Wind Speed 10 mph (North)    
Max Wind Speed 17 mph    
Max Gust Speed 23 mph    
Visibility 6 miles    
Events Snow    
Averages and records for this station are not official NWS values.
T = Trace of Precipitation, MM = Missing Value Source: NWS Daily Summary

Daily Weather History Graph

Daily Weather History Graph

Search for Another Location

Airport:

Trip Planner

Search our weather history database for the weather conditions in past years. The results will help you decide how hot, cold, wet, or windy it might be!

Date:

Astronomy

Jan. 02, 2014 Rise Set
Actual Time 7:20 AM EST 4:44 PM EST
Civil Twilight 6:50 AM EST 5:15 PM EST
Nautical Twilight 6:16 AM EST 5:49 PM EST
Astronomical Twilight 5:43 AM EST 6:21 PM EST
Moon 7:59 AM EST (1/2) 6:38 PM EST (1/2)
Length of Visible Light 10h 25m
Length of Day
9h 24m
New Moon, 2% of the Moon is Illuminated
Jan 2
New Moon
Jan 7
First Quarter
Jan 15
Full
Jan 24
Last Quarter
Jan 30
New

Hourly Weather History & Observations

Time (EST) Temp. Windchill Dew Point Humidity Pressure Visibility Wind Dir Wind Speed Gust Speed Precip Events Conditions
12:58 AM 33.1 °F 26.9 °F 27.5 °F 80% 30.17 in 10.0 mi ENE 6.9 mph - N/A   Mostly Cloudy
1:58 AM 34.7 °F 29.6 °F 29.1 °F 80% 30.14 in 10.0 mi NE 5.8 mph - N/A   Overcast
2:19 AM 35.6 °F 28.6 °F 30.2 °F 81% 30.12 in 10.0 mi NE 9.2 mph - N/A   Overcast
2:37 AM 35.6 °F 29.2 °F 30.2 °F 81% 30.11 in 10.0 mi NE 8.1 mph - N/A   Overcast
2:43 AM 35.6 °F 28.6 °F 30.2 °F 81% 30.11 in 10.0 mi NE 9.2 mph - N/A   Overcast
2:58 AM 35.2 °F 29.5 °F 29.5 °F 80% 30.13 in 10.0 mi NE 6.9 mph - N/A   Overcast
3:40 AM 35.6 °F 28.0 °F 30.2 °F 81% 30.09 in 10.0 mi NNE 10.4 mph - N/A   Overcast
3:46 AM 35.6 °F 28.0 °F 30.2 °F 81% 30.08 in 10.0 mi NE 10.4 mph - N/A   Overcast
3:58 AM 35.2 °F 28.8 °F 30.0 °F 81% 30.09 in 10.0 mi NNE 8.1 mph - N/A   Overcast
4:43 AM 35.6 °F 28.0 °F 32.0 °F 87% 30.05 in 10.0 mi North 10.4 mph - N/A   Overcast
4:58 AM 35.4 °F 27.3 °F 30.4 °F 82% 30.06 in 10.0 mi NNE 11.5 mph - N/A   Overcast
5:58 AM 34.2 °F 25.2 °F 28.9 °F 81% 30.06 in 10.0 mi NNE 12.7 mph - N/A   Overcast
6:58 AM 32.9 °F 24.1 °F 27.7 °F 81% 30.05 in 10.0 mi NNE 11.5 mph - N/A   Overcast
7:25 AM 32.0 °F 23.0 °F 28.4 °F 87% 30.02 in 10.0 mi NNE 11.5 mph - N/A   Overcast
7:40 AM 32.0 °F 22.5 °F 28.4 °F 87% 30.02 in 10.0 mi NNE 12.7 mph - N/A   Overcast
7:58 AM 32.0 °F 22.1 °F 28.0 °F 85% 30.05 in 10.0 mi NNE 13.8 mph - N/A   Overcast
8:58 AM 31.6 °F 22.1 °F 27.9 °F 86% 30.04 in 10.0 mi NNE 12.7 mph - N/A   Overcast
9:58 AM 31.3 °F 19.9 °F 27.5 °F 86% 30.01 in 10.0 mi NNE 17.3 mph - N/A   Overcast
10:58 AM 31.5 °F 22.9 °F 27.5 °F 85% 29.98 in 10.0 mi NNE 10.4 mph - N/A   Overcast
11:58 AM 30.9 °F 21.7 °F 27.3 °F 86% 29.92 in 10.0 mi NNE 11.5 mph - N/A   Overcast
12:13 PM 32.0 °F 22.5 °F 26.6 °F 80% 29.90 in 10.0 mi North 12.7 mph - N/A   Overcast
12:19 PM 32.0 °F 23.0 °F 26.6 °F 80% 29.90 in 10.0 mi NNE 11.5 mph - N/A   Overcast
12:46 PM 30.2 °F 18.5 °F 26.6 °F 86% 29.87 in 10.0 mi NNE 17.3 mph - N/A   Overcast
12:58 PM 30.0 °F 19.1 °F 26.1 °F 85% 29.89 in 10.0 mi North 15.0 mph - N/A   Overcast
1:16 PM 30.2 °F 19.8 °F 26.6 °F 86% 29.85 in 10.0 mi NNE 13.8 mph - N/A   Overcast
1:34 PM 28.4 °F 16.6 °F 24.8 °F 86% 29.84 in 10.0 mi North 16.1 mph - N/A   Overcast
1:58 PM 28.9 °F 18.2 °F 25.3 °F 86% 29.84 in 10.0 mi NNE 13.8 mph 23.0 mph N/A   Overcast
2:58 PM 28.8 °F 19.5 °F 25.7 °F 88% 29.82 in 10.0 mi NNE 10.4 mph - N/A   Overcast
3:58 PM 28.6 °F 17.2 °F 25.7 °F 89% 29.80 in 10.0 mi North 15.0 mph - N/A   Overcast
4:01 PM 28.4 °F 18.0 °F 26.6 °F 93% 29.78 in 10.0 mi NNE 12.7 mph - N/A   Overcast
4:07 PM 28.4 °F 18.0 °F 26.6 °F 93% 29.77 in 10.0 mi NNE 12.7 mph 19.6 mph N/A   Overcast
4:58 PM 27.9 °F 17.3 °F 25.3 °F 90% 29.79 in 10.0 mi NNE 12.7 mph - N/A   Overcast
5:13 PM 28.4 °F 18.0 °F 24.8 °F 86% 29.76 in 10.0 mi NNE 12.7 mph - N/A Snow Light Snow
5:45 PM 26.6 °F 15.2 °F 24.8 °F 93% 29.74 in 9.0 mi NNE 13.8 mph - N/A Snow Light Snow
5:58 PM 27.5 °F 18.0 °F 25.2 °F 91% 29.76 in 8.0 mi NNE 10.4 mph - 0.00 in Snow Light Snow
6:07 PM 26.6 °F 17.5 °F 24.8 °F 93% 29.73 in 6.0 mi NNE 9.2 mph - N/A Snow Light Snow
6:13 PM 28.4 °F 16.6 °F 24.8 °F 86% 29.71 in 4.0 mi NNE 16.1 mph - N/A Snow Light Snow
6:16 PM 28.4 °F 18.5 °F 24.8 °F 86% 29.72 in 3.0 mi NNE 11.5 mph - N/A Snow Light Snow
6:25 PM 28.4 °F 17.0 °F 24.8 °F 86% 29.71 in 4.0 mi NE 15.0 mph 20.7 mph N/A Snow Light Snow
6:31 PM 28.4 °F 18.0 °F 26.6 °F 93% 29.71 in 4.0 mi NNE 12.7 mph 20.7 mph N/A Snow Light Snow
6:55 PM 26.6 °F 18.2 °F 24.8 °F 93% 29.70 in 2.5 mi North 8.1 mph - N/A Snow Light Snow
6:58 PM 26.8 °F 18.5 °F 24.8 °F 92% 29.72 in 2.5 mi North 8.1 mph - 0.00 in Snow Light Snow
7:07 PM 26.6 °F 18.2 °F 24.8 °F 93% 29.68 in 2.0 mi North 8.1 mph - N/A Snow Light Snow
7:10 PM 26.6 °F 18.2 °F 24.8 °F 93% 29.68 in 1.8 mi North 8.1 mph - N/A Snow Light Snow
7:16 PM 26.6 °F 18.2 °F 24.8 °F 93% 29.68 in 1.8 mi North 8.1 mph - N/A Snow Light Snow
7:19 PM 26.6 °F 17.5 °F 24.8 °F 93% 29.68 in 2.0 mi North 9.2 mph - N/A Snow Light Snow
7:25 PM 26.6 °F 19.1 °F 24.8 °F 93% 29.69 in 2.5 mi Variable 6.9 mph - N/A Snow Light Snow
7:28 PM 26.6 °F 17.5 °F 24.8 °F 93% 29.69 in 3.0 mi North 9.2 mph - N/A Snow Light Snow
7:49 PM 26.6 °F 17.5 °F 24.8 °F 93% 29.67 in 3.0 mi North 9.2 mph - N/A Snow Light Snow
7:52 PM 26.6 °F 18.2 °F 24.8 °F 93% 29.67 in 2.5 mi North 8.1 mph - N/A Snow Light Snow
7:58 PM 25.9 °F 16.0 °F 23.9 °F 92% 29.69 in 2.5 mi North 10.4 mph - 0.01 in Snow Light Snow
8:01 PM 24.8 °F 15.3 °F 23.0 °F 93% 29.68 in 3.0 mi North 9.2 mph - N/A Snow Light Snow
8:04 PM 24.8 °F 16.1 °F 23.0 °F 93% 29.67 in 3.0 mi NNW 8.1 mph - N/A Snow Light Snow
8:07 PM 24.8 °F 15.3 °F 23.0 °F 93% 29.66 in 3.0 mi North 9.2 mph - N/A Snow Light Snow
8:13 PM 24.8 °F 14.6 °F 23.0 °F 93% 29.66 in 2.5 mi North 10.4 mph - N/A Snow Light Snow
8:25 PM 24.8 °F 14.6 °F 23.0 °F 93% 29.66 in 1.8 mi North 10.4 mph - N/A Snow Light Snow
8:31 PM 24.8 °F 14.6 °F 23.0 °F 93% 29.65 in 1.8 mi North 10.4 mph - N/A Snow Light Snow
8:34 PM 24.8 °F 15.3 °F 23.0 °F 93% 29.66 in 1.8 mi North 9.2 mph - N/A Snow Light Snow
8:43 PM 24.8 °F 14.6 °F 23.0 °F 93% 29.65 in 2.0 mi North 10.4 mph - N/A Snow Light Snow
8:49 PM 24.8 °F 15.3 °F 23.0 °F 93% 29.65 in 1.8 mi North 9.2 mph - N/A Snow Light Snow
8:55 PM 24.8 °F 14.6 °F 23.0 °F 93% 29.65 in 1.5 mi North 10.4 mph - N/A Snow Light Snow
8:58 PM 24.8 °F 14.6 °F 23.0 °F 93% 29.67 in 1.5 mi North 10.4 mph - 0.02 in Snow Light Snow
9:22 PM 24.8 °F 14.6 °F 23.0 °F 93% 29.64 in 1.2 mi North 10.4 mph - N/A Snow Light Snow
9:40 PM 23.0 °F 11.1 °F 21.2 °F 93% 29.64 in 1.0 mi North 12.7 mph - N/A Snow Light Snow
9:58 PM 23.5 °F 12.4 °F 21.4 °F 91% 29.64 in 1.0 mi North 11.5 mph - 0.02 in Snow Light Snow
10:19 PM 23.0 °F 12.4 °F 21.2 °F 93% 29.61 in 1.2 mi North 10.4 mph - N/A Snow Light Snow
10:22 PM 23.0 °F 11.7 °F 21.2 °F 93% 29.61 in 1.2 mi North 11.5 mph - N/A Snow Light Snow
10:28 PM 23.0 °F 12.4 °F 21.2 °F 93% 29.62 in 1.2 mi North 10.4 mph - N/A Snow Light Snow
10:34 PM 23.0 °F 11.1 °F 21.2 °F 93% 29.62 in 1.2 mi NNW 12.7 mph - N/A Snow Light Snow
10:37 PM 23.0 °F 11.1 °F 19.4 °F 86% 29.62 in 1.0 mi NNW 12.7 mph - N/A Snow Light Snow
10:58 PM 22.5 °F 11.1 °F 19.9 °F 90% 29.63 in 1.0 mi North 11.5 mph - 0.00 in Snow Light Snow
11:10 PM 23.0 °F 10.6 °F 19.4 °F 86% 29.61 in 0.8 mi NNW 13.8 mph - N/A Snow Light Snow
11:19 PM 21.2 °F 8.9 °F 19.4 °F 93% 29.62 in 1.0 mi North 12.7 mph - N/A Snow Light Snow
11:40 PM 21.2 °F 6.8 °F 19.4 °F 93% 29.60 in 0.8 mi North 17.3 mph - N/A Snow Light Snow
11:46 PM 21.2 °F 8.9 °F 19.4 °F 93% 29.61 in 1.0 mi North 12.7 mph - N/A Snow Light Snow
11:58 PM 21.0 °F 8.1 °F 18.3 °F 89% 29.62 in 1.0 mi North 13.8 mph - 0.02 in Snow Light Snow